Location: Brunembert
(50.7122°N, 1.8935°E)
Time: 05:05:32
(UTC+00:00)

Meteor 1-14 Rocket - Pass Details

Date: 22 April 2021
Orbit: 834 x 918 km, 81.3° (Epoch: 06 May)

Event Time Altitude Azimuth Distance (km) Brightness Sun altitude
Rises 22:55:16 0° 348° (NNW) 3,571 8.8 -25.6°
Reaches altitude 10° 22:57:47 10° 350° (N) 2,625 7.8 -25.7°
Maximum altitude 23:03:47 74° 76° (ENE) 957 4.3 -25.9°
Enters shadow 23:04:38 63° 130° (SE) 1,015 4.3 -26.0°
